This demonstration page uses our WeatherBlox Daily Observations layout. Learn more.

Left ArrowRight Arrow

39.08367, -84.50855

Hourly Observations for May 6, 2020

Temp ( °F °C ) Dew Point ( °F °C ) Humidity (%) Winds ( mph kmh ) Pressure ( in mb ) Visibility ( mi km ) Precip ( " mm )
12:53 am 00:53 Cloudy 46 7.8 36 2.2 68 68 N 14 22 29.94 1014 10 16.0934 0 0
1:53 am 01:53 Cloudy 44 6.7 38 3.3 79 79 N 10 17 29.95 1014 10 16.0934 0 0
2:53 am 02:53 Cloudy 43 6.1 37 2.8 80 80 N 9 15 29.94 1014 10 16.0934 0 0
3:53 am 03:53 Cloudy 43 6.1 36 2.2 76 76 N 7 11 29.95 1014 10 16.0934 0 0
4:53 am 04:53 Cloudy 42 5.6 36 2.2 79 79 N 7 11 29.96 1015 10 16.0934 0 0
5:46 am 05:46 Cloudy 42 5.6 35 1.7 76 76 N 6 9 29.99 1015 10 16.0934 0 0
5:53 am 05:53 Cloudy with Light Rain 42 5.6 36 2.2 79 79 N 6 9 29.97 1015 10 16.0934 0.001 0.001
6:00 am 06:00 Cloudy with Light Rain 42 5.6 35 1.7 76 76 NNE 7 11 29.99 1015 10 16.0934 0.001 0.001
6:16 am 06:16 Cloudy 42 5.6 35 1.7 76 76 N 7 11 29.99 1015 10 16.0934 0.001 0.001
6:23 am 06:23 Cloudy 42 5.6 35 1.7 76 76 NNE 6 9 29.99 1015 10 16.0934 0.001 0.001
6:31 am 06:31 Cloudy 42 5.6 36 2.2 79 79 N 7 11 29.99 1015 10 16.0934 0.001 0.001
6:53 am 06:53 Cloudy with Light Rain 42 5.6 36 2.2 79 79 NNW 8 13 29.98 1015 10 16.0934 0.001 0.001
7:53 am 07:53 Cloudy 43 6.1 36 2.2 76 76 NNW 3 6 29.99 1016 10 16.0934 0.001 0.001
8:53 am 08:53 Cloudy 44 6.7 35 1.7 71 71 NW 7 11 30 1016 10 16.0934 0 0
9:53 am 09:53 Cloudy 45 7.2 35 1.7 68 68 VRB 6 9 30.01 1016 10 16.0934 0 0
10:53 am 10:53 Cloudy 49 9.4 37 2.8 64 64 NNW 8 13 30.01 1016 10 16.0934 0 0
11:53 am 11:53 Mostly Cloudy 54 12.2 39 3.9 57 57 WNW 13 20 30.02 1017 10 16.0934 0 0
12:53 pm 12:53 Mostly Cloudy 56 13.3 37 2.8 49 49 N 8 13 30.02 1017 10 16.0934 0 0
1:53 pm 13:53 Mostly Cloudy 57 13.9 35 1.7 44 44 N 12 19 30.01 1016 10 16.0934 0 0
2:53 pm 14:53 Partly Cloudy 59 15 33 0.6 38 38 NNW 15 24 30.01 1016 10 16.0934 0 0
3:53 pm 15:53 Partly Cloudy 60 15.6 30 -1.1 32 32 NNW 16 26 30.01 1016 10 16.0934 0 0
4:53 pm 16:53 Mostly Sunny 61 16.1 29 -1.7 30 30 NNW 13 20 30 1016 10 16.0934 0 0
5:53 pm 17:53 Mostly Sunny 60 15.6 23 -5 24 24 NW 14 22 30.01 1016 10 16.0934 0 0
6:53 pm 18:53 Sunny 60 15.6 22 -5.6 23 23 NNW 8 13 30.01 1016 10 16.0934 0 0
7:53 pm 19:53 Sunny 57 13.9 22 -5.6 26 26 NNW 8 13 30.02 1017 10 16.0934 0 0
8:53 pm 20:53 Clear 56 13.3 22 -5.6 27 27 NW 3 6 30.04 1017 10 16.0934 0 0
9:53 pm 21:53 Clear 54 12.2 24 -4.4 31 31 VRB 3 6 30.05 1018 10 16.0934 0 0
10:53 pm 22:53 Clear 52 11.1 24 -4.4 34 34 VRB 5 7 30.06 1018 10 16.0934 0 0
11:53 pm 23:53 Clear 42 5.6 34 1.1 73 73 Calm 30.06 1018 10 16.0934 0 0

Powered by AerisWeather